Terminal Aerodrome Forecast
Issued by NWS

Home | Current Version | Previous Version | Text Only | Print | Product List | Glossary On
Versions: 1 2 3 4 5 6 7 8 9 10 11 12 13 14 15 16 17 18 19 20 21 22 23 24 25 26 27 28
000
FTUS43 KDVN 210400 AAA
TAFCID
TAF AMD
KCID 210459Z 2105/2124 16006KT 1/2SM -DZ FG OVC002
     FM211300 16011KT 1SM BR OVC004
     FM211600 17014KT 2SM BR OVC008=

USA.gov is the U.S. government's official web portal to all federal, state and local government web resources and services.